Regional Weather Roundup
Issued by NWS

Home | Current Version | Previous Version | Graphics & Text | Print | Product List | Glossary On
Versions: 1 2 3 4 5 6 7 8 9 10 11 12 13 14 15 16 17 18 19 20 21 22 23 24 25 26 27 28 29 30 31 32 33 34 35 36 37 38 39 40 41 42 43 44 45 46 47 48 49 50
000
ASUS43 KIND 212259
RWRIN

WEATHER ROUNDUP FOR INDIANA
NATIONAL WEATHER SERVICE INDIANAPOLIS IN
600 PM EST SAT JAN 21 2017

NOTE: "FAIR" INDICATES FEW OR NO CLOUDS BELOW 12,000 FEET WITH NO
SIGNIFICANT WEATHER AND/OR OBSTRUCTIONS TO VISIBILITY.

* - STATION DOES NOT REPORT WEATHER SUCH AS PRECIPITATION OR FOG.

+ - STATION NOT QUALITY CONTROLLED BY THE NATIONAL WEATHER SERVICE.
    USE DATA WITH CAUTION...ESPECIALLY DEWPOINT AND RELATIVE
    HUMIDITY OBSERVATIONS.

INZ001>003-010>013-019-020-220000-
NORTHWEST INDIANA

CITY           SKY/WX    TMP DP  RH WIND       PRES   REMARKS
GARY /AIRPORT/ PTCLDY    59  46  63 SW9       29.52R
KNOX *+        CLEAR     55  32  41 SW6       29.53R
LA PORTE +     MOCLDY    56  49  78 S7        29.54R
MICHIGAN CITY+ CLOUDY    55  50  82 S6        29.53R
MONTICELLO +   CLEAR     56  49  76 SW6       29.53R

$$

LMZ046-743>745-220000-
SOUTHERN LAKE MICHIGAN

STATION/POSITION TIME  TEMP    WIND        PRES    WAVE
                       AIR SEA DIR/SP/G            HT
                 (UTC) (F)     (DEG/KT/KT) (MB)    (FT)
BURNS HARBOR     2240   57     230/  9/ 11 1000.3R
MICHIGAN CITY    2230   59     190/ 13/ 15   N/A

$$

INZ004-005-014>016-021>024-220000-
NORTH CENTRAL INDIANA

CITY           SKY/WX    TMP DP  RH WIND       PRES   REMARKS
ELKHART        CLEAR     57  50  77 S6        29.53R
GOSHEN         CLEAR     56  48  74 S8        29.54R
SOUTH BEND     CLEAR     55  48  77 SW8       29.54R

$$

INZ006>009-017-018-025>027-220000-
NORTHEAST INDIANA

CITY           SKY/WX    TMP DP  RH WIND       PRES   REMARKS
ANGOLA *+      CLEAR     55  46  71 SE6       29.55S
FORT WAYNE     PTCLDY    55  50  83 S9        29.57S
KENDALLVILLE + CLEAR     55  50  83 S8        29.56S

$$

INZ028-029-035-036-043>045-051>053-220000-
WEST CENTRAL INDIANA

CITY           SKY/WX    TMP DP  RH WIND       PRES   REMARKS
CRAWFORDSVL +  CLEAR     56  52  85 S7        29.55S
LAFAYETTE      CLEAR     58  49  72 SW6       29.54R
TERRE HAUTE    CLEAR     59  52  77 S6        29.55S

$$

INZ030>032-037>040-046>048-054>057-064-065-220000-
CENTRAL INDIANA

CITY           SKY/WX    TMP DP  RH WIND       PRES   REMARKS
COLUMBUS       CLEAR     59  54  82 S9        29.60R
FRANKFORT +    MOCLDY    59  54  83 SW6       29.57R
INDIANAPOLIS   PTCLDY    59  49  69 SW10      29.57R
-EAGLE CREEK   CLEAR     62  49  62 S7        29.57R
KOKOMO +       CLEAR     56  52  86 S10       29.56S
MT COMFORT *+  CLEAR     57  52  82 S7        29.59R
SHELBYVILLE    CLEAR     58  52  80 S9        29.58R
ZIONSVILLE +   CLEAR     58  50  74 S9        29.57R

$$

INZ033-034-041-042-049-050-058-059-220000-
EAST CENTRAL INDIANA

CITY           SKY/WX    TMP DP  RH WIND       PRES   REMARKS
MUNCIE         CLEAR     60  52  74 S9        29.58R

$$

INZ060-061-067>069-081>083-085>088-220000-
SOUTHWEST INDIANA

CITY           SKY/WX    TMP DP  RH WIND       PRES   REMARKS
EVANSVILLE     PTCLDY    64  49  57 S7        29.57F
HUNTINGBURG *+ MOCLDY    62  52  69 SE5       29.58F

$$

INZ062-063-066-070>080-084-089>092-220000-
SOUTH CENTRAL AND SOUTHEAST INDIANA

CITY           SKY/WX    TMP DP  RH WIND       PRES   REMARKS
BLOOMINGTON    CLEAR     61  49  64 SW5       29.58R
MADISON *+     MOCLDY    61  52  72 S5        29.64R
SEYMOUR +      CLEAR     61  50  67 S5        29.60S

$$





USA.gov is the U.S. government's official web portal to all federal, state and local government web resources and services.